Hourly Data Report for September 01, 2018

ASHCROFT
BRITISH COLUMBIA
Current Station Operator: ECCC - MSC

50°42'30.005" N
121°16'53.001" W
327.00 m
1160515
71681
VAS

Download Data

Hourly Data (September 2018)
Hourly Data Report for September 1, 2018
TIME
LST
Temp Definition
°C
Dew Point Definition
°C
Rel Hum Definition
%
Precip. Amount Definition
mm

Wind Dir Definition
10's deg

Wind Spd Definition
km/h
Visibility Definition
km
Stn Press Definition
kPa
Hmdx Definition


Wind Chill Definition


Weather Definition


00:00 17.3 5.1 45 0.0 13 3   97.40     LegendNANA
01:00 16.7 5.4 47 0.0 16 6   97.45     LegendNANA
02:00 15.4 5.5 52 0.0 17 4   97.56     LegendNANA
03:00 14.6 6.3 57 0.0 7 4   97.64     LegendNANA
04:00 14.0 5.4 56 0.0 17 3   97.73     LegendNANA
05:00 13.8 6.7 62 0.0 18 4   97.78     LegendNANA
06:00 14.0 6.3 59 0.0 15 2   97.86     LegendNANA
07:00 14.8 7.6 62 0.0 8 1   97.92     LegendNANA
08:00 15.7 6.3 53 0.0 23 2   97.94     LegendNANA
09:00 16.9 4.5 44 0.0 26 4   97.98     LegendNANA
10:00 18.1 1.5 33 0.0 31 2   97.95     LegendNANA
11:00 20.0 3.8 34 0.0 6 3   97.92     LegendNANA
12:00 20.2 2.4 31 0.0 32 5   97.83     LegendNANA
13:00 22.1 2.8 28 0.0 28 5   97.79     LegendNANA
14:00 22.7 2.5 27 0.0 30 6   97.71     LegendNANA
15:00 22.0 3.5 30 0.0 31 5   97.64     LegendNANA
16:00 22.6 3.3 28 0.0 36 3   97.59     LegendNANA
17:00 22.9 2.5 26 0.0 35 4   97.52     LegendNANA
18:00 21.4 4.7 33 0.0 36 4   97.52     LegendNANA
19:00 20.0 5.1 37 0.0 2 4   97.57     LegendNANA
20:00 18.3 6.2 45 0.0 22 4   97.62     LegendNANA
21:00 17.8 5.8 45 0.0 0 1   97.65     LegendNANA
22:00 17.1 6.4 49 0.0 3 2   97.66     LegendNANA
23:00 16.5 7.2 54 0.0 36 2   97.68     LegendNANA

Notes on Data Quality.

Legend

  • E = Estimated
  • M = Missing
  • NA = Not Available*
  • [empty] = Indicates an unobserved value
Date modified: